Satellite: RAX-2 Catalog number: 37853 Epoch time: 12228.87257347 Element set: 258 Inclination: 101.7093 deg RA of node: 296.2427 deg Eccentricity: 0.0246455 Arg of perigee: 180.6933 deg Mean anomaly: 179.3939 deg Mean motion: 14.80382037 rev/day Decay rate: 3.413e-05 rev/day^2 Epoch rev: 4322 Checksum: 318
Satellite: AUBIESAT Catalog number: 37854 Epoch time: 12228.87890211 Element set: 258 Inclination: 101.7112 deg RA of node: 296.5808 deg Eccentricity: 0.0247676 Arg of perigee: 179.8903 deg Mean anomaly: 180.2388 deg Mean motion: 14.80802906 rev/day Decay rate: 3.979e-05 rev/day^2 Epoch rev: 4322 Checksum: 328
Satellite: HRBE Catalog number: 37855 Epoch time: 12228.89871724 Element set: 0256 Inclination: 101.7117 deg RA of node: 296.5454 deg Eccentricity: 0.0247862 Arg of perigee: 179.9510 deg Mean anomaly: 180.1766 deg Mean motion: 14.80638699 rev/day Decay rate: 4.165e-05 rev/day^2 Epoch rev: 04322 Checksum: 334
Satellite: RS-39 Catalog number: 38051 Epoch time: 12229.81045976 Element set: 614 Inclination: 051.6387 deg RA of node: 230.7611 deg Eccentricity: 0.0012821 Arg of perigee: 256.0322 deg Mean anomaly: 161.6952 deg Mean motion: 15.25230577 rev/day Decay rate: 7.319e-05 rev/day^2 Epoch rev: 3122 Checksum: 284
Satellite: E-STAR Catalog number: 38079 Epoch time: 12229.81948136 Element set: 432 Inclination: 069.4856 deg RA of node: 176.7353 deg Eccentricity: 0.0728348 Arg of perigee: 171.3899 deg Mean anomaly: 190.0518 deg Mean motion: 14.18402841 rev/day Decay rate: 2.6333e-04 rev/day^2 Epoch rev: 2617 Checksum: 330
Satellite: GOLIAT Catalog number: 38085 Epoch time: 12228.86611142 Element set: 396 Inclination: 069.4880 deg RA of node: 179.4058 deg Eccentricity: 0.0734004 Arg of perigee: 172.9117 deg Mean anomaly: 188.3114 deg Mean motion: 14.17316840 rev/day Decay rate: 2.7781e-04 rev/day^2 Epoch rev: 2602 Checksum: 304
Satellite: HORYU-2 Catalog number: 38340 Epoch time: 12229.81397341 Element set: 95 Inclination: 098.1753 deg RA of node: 169.6900 deg Eccentricity: 0.0013737 Arg of perigee: 133.9257 deg Mean anomaly: 226.3119 deg Mean motion: 14.70095138 rev/day Decay rate: 7.86e-06 rev/day^2 Epoch rev: 1338 Checksum: 309
Satellite: RS-40 Catalog number: 38736 Epoch time: 12228.48369154 Element set: 0025 Inclination: 082.4807 deg RA of node: 345.7228 deg Eccentricity: 0.0017664 Arg of perigee: 275.1527 deg Mean anomaly: 084.7535 deg Mean motion: 12.42645912 rev/day Decay rate: 1.0e-07 rev/day^2 Epoch rev: 00227 Checksum: 297
/EX
participants (1)
-
Ray Hoad